Weather History for Sacramento / Mc Clellan, CA

Change the Weather History Date:

Sunday, September 22, 2013

  Actual Average (KMHR) Record (KMHR)
Temperature  
Mean Temperature 62 °F -  
Max Temperature 73 °F 84 °F 98 °F (2002)
Min Temperature 51 °F 54 °F 48 °F (2010)
Degree Days  
Heating Degree Days 3    
Growing Degree Days 12 (Base 50)    
Moisture  
Dew Point 51 °F    
Average Humidity 72    
Maximum Humidity 94    
Minimum Humidity 36    
Precipitation  
Precipitation 0.00 in - - ()
Sea Level Pressure  
Sea Level Pressure 29.96 in    
Wind  
Wind Speed 4 mph (NW)    
Max Wind Speed 9 mph    
Max Gust Speed -    
Visibility 10 miles    
Events      
Averages and records for this station are not official NWS values.
T = Trace of Precipitation, MM = Missing Value Source: NWS Daily Summary

Daily Weather History Graph

Daily Weather History Graph

Search for Another Location

Airport:

Trip Planner

Search our weather history database for the weather conditions in past years. The results will help you decide how hot, cold, wet, or windy it might be!

Date:

Astronomy

Sep. 22, 2013 Rise Set
Actual Time 6:53 AM PDT 7:02 PM PDT
Civil Twilight 6:27 AM PDT 7:28 PM PDT
Nautical Twilight 5:56 AM PDT 7:59 PM PDT
Astronomical Twilight 5:24 AM PDT 8:30 PM PDT
Moon 8:58 PM PDT (9/22) 10:16 AM PDT (9/22)
Length of Visible Light 13h 01m
Length of Day
12h 08m
Waning Gibbous, 88% of the Moon is Illuminated
Sep 22
Waning Gibbous
Sep 26
Last Quarter
Oct 4
New
Oct 11
First Quarter
Oct 18
Full

Hourly Weather History & Observations

Time (PDT) Temp. Dew Point Humidity Pressure Visibility Wind Dir Wind Speed Gust Speed Precip Events Conditions
12:10 AM 57.2 °F 55.4 °F 94% 29.90 in 10.0 mi West 3.5 mph - N/A   Mostly Cloudy
12:30 AM 57.2 °F 53.6 °F 88% 29.90 in 10.0 mi Calm Calm - N/A   Overcast
12:50 AM 57.2 °F 53.6 °F 88% 29.91 in 10.0 mi West 4.6 mph - N/A   Overcast
1:10 AM 55.4 °F 53.6 °F 94% 29.91 in 10.0 mi WSW 3.5 mph - N/A   Overcast
1:30 AM 55.4 °F 53.6 °F 94% 29.91 in 10.0 mi West 3.5 mph - N/A   Scattered Clouds
1:50 AM 55.4 °F 53.6 °F 94% 29.92 in 10.0 mi West 4.6 mph - N/A   Clear
2:10 AM 55.4 °F 53.6 °F 94% 29.92 in 8.0 mi WNW 3.5 mph - N/A   Partly Cloudy
2:30 AM 55.4 °F 53.6 °F 94% 29.93 in 7.0 mi NNW 5.8 mph - N/A   Mostly Cloudy
2:50 AM 55.4 °F 53.6 °F 94% 29.93 in 9.0 mi NNE 5.8 mph - N/A   Mostly Cloudy
3:10 AM 55.4 °F 53.6 °F 94% 29.93 in 10.0 mi North 3.5 mph - N/A   Overcast
3:30 AM 57.2 °F 53.6 °F 88% 29.92 in 10.0 mi NE 3.5 mph - N/A   Overcast
3:50 AM 57.2 °F 53.6 °F 88% 29.93 in 8.0 mi Calm Calm - N/A   Overcast
4:10 AM 55.4 °F 53.6 °F 94% 29.93 in 9.0 mi Calm Calm - N/A   Overcast
4:30 AM 55.4 °F 53.6 °F 94% 29.93 in 8.0 mi NW 3.5 mph - N/A   Mostly Cloudy
4:50 AM 53.6 °F 51.8 °F 94% 29.93 in 7.0 mi NNW 3.5 mph - N/A   Partly Cloudy
5:10 AM 53.6 °F 51.8 °F 94% 29.93 in 10.0 mi North 4.6 mph - N/A   Clear
5:30 AM 53.6 °F 51.8 °F 94% 29.94 in 10.0 mi North 3.5 mph - N/A   Clear
5:50 AM 53.6 °F 50.0 °F 88% 29.94 in 10.0 mi Calm Calm - N/A   Scattered Clouds
6:10 AM 53.6 °F 50.0 °F 88% 29.94 in 10.0 mi Calm Calm - N/A   Mostly Cloudy
6:30 AM 53.6 °F 50.0 °F 88% 29.95 in 10.0 mi Calm Calm - N/A   Mostly Cloudy
6:50 AM 51.8 °F 50.0 °F 94% 29.95 in 10.0 mi NW 3.5 mph - N/A   Mostly Cloudy
7:10 AM 51.8 °F 50.0 °F 94% 29.96 in 10.0 mi WNW 3.5 mph - N/A   Partly Cloudy
7:30 AM 53.6 °F 50.0 °F 88% 29.97 in 10.0 mi WNW 4.6 mph - N/A   Scattered Clouds
7:50 AM 53.6 °F 51.8 °F 94% 29.97 in 10.0 mi WNW 4.6 mph - N/A   Mostly Cloudy
8:10 AM 55.4 °F 53.6 °F 94% 29.98 in 8.0 mi WNW 5.8 mph - N/A   Overcast
8:30 AM 55.4 °F 53.6 °F 94% 29.98 in 5.0 mi NNW 5.8 mph - N/A   Overcast
8:50 AM 55.4 °F 53.6 °F 94% 29.99 in 5.0 mi NW 6.9 mph - N/A   Overcast
9:10 AM 55.4 °F 53.6 °F 94% 29.99 in 7.0 mi North 3.5 mph - N/A   Overcast
9:30 AM 55.4 °F 53.6 °F 94% 30.00 in 8.0 mi NW 4.6 mph - N/A   Overcast
9:50 AM 57.2 °F 53.6 °F 88% 30.00 in 10.0 mi NW 3.5 mph - N/A   Mostly Cloudy
10:10 AM 59.0 °F 53.6 °F 82% 30.00 in 10.0 mi NW 4.6 mph - N/A   Partly Cloudy
10:30 AM 60.8 °F 53.6 °F 77% 30.01 in 10.0 mi NNW 6.9 mph - N/A   Clear
10:50 AM 62.6 °F 53.6 °F 72% 30.01 in 10.0 mi North 8.1 mph - N/A   Partly Cloudy
11:10 AM 62.6 °F 53.6 °F 72% 30.01 in 10.0 mi North 6.9 mph - N/A   Partly Cloudy
11:30 AM 64.4 °F 51.8 °F 64% 30.00 in 10.0 mi North 6.9 mph - N/A   Partly Cloudy
11:50 AM 64.4 °F 51.8 °F 64% 30.00 in 10.0 mi NNW 5.8 mph - N/A   Clear
12:10 PM 64.4 °F 53.6 °F 68% 29.99 in 10.0 mi NNW 5.8 mph - N/A   Clear
12:30 PM 66.2 °F 51.8 °F 60% 29.99 in 10.0 mi NNE 3.5 mph - N/A   Partly Cloudy
12:50 PM 66.2 °F 53.6 °F 64% 29.98 in 10.0 mi NNW 5.8 mph - N/A   Clear
1:10 PM 68.0 °F 53.6 °F 60% 29.98 in 10.0 mi NW 5.8 mph - N/A   Clear
1:30 PM 68.0 °F 53.6 °F 60% 29.98 in 10.0 mi WNW 9.2 mph - N/A   Clear
1:50 PM 69.8 °F 51.8 °F 53% 29.98 in 10.0 mi West 8.1 mph - N/A   Clear
2:10 PM 68.0 °F 51.8 °F 56% 29.97 in 10.0 mi WNW 8.1 mph - N/A   Partly Cloudy
2:30 PM 69.8 °F 48.2 °F 46% 29.97 in 10.0 mi NW 5.8 mph - N/A   Partly Cloudy
2:50 PM 71.6 °F 50.0 °F 46% 29.96 in 10.0 mi WNW 8.1 mph - N/A   Partly Cloudy
3:10 PM 71.6 °F 50.0 °F 46% 29.96 in 10.0 mi NW 4.6 mph - N/A   Clear
3:30 PM 71.6 °F 48.2 °F 43% 29.96 in 10.0 mi West 5.8 mph - N/A   Clear
3:50 PM 71.6 °F 46.4 °F 41% 29.96 in 10.0 mi NW 5.8 mph - N/A   Clear
4:10 PM 73.4 °F 46.4 °F 38% 29.95 in 10.0 mi NW 6.9 mph - N/A   Clear
4:30 PM 73.4 °F 44.6 °F 36% 29.95 in 10.0 mi NNW 5.8 mph - N/A   Clear
4:50 PM 73.4 °F 44.6 °F 36% 29.95 in 10.0 mi NW 6.9 mph - N/A   Clear
5:10 PM 73.4 °F 46.4 °F 38% 29.95 in 10.0 mi NW 3.5 mph - N/A   Clear
5:30 PM 73.4 °F 46.4 °F 38% 29.95 in 10.0 mi NNW 8.1 mph - N/A   Clear
5:50 PM 73.4 °F 48.2 °F 41% 29.95 in 10.0 mi WNW 5.8 mph - N/A   Clear
6:10 PM 71.6 °F 46.4 °F 41% 29.95 in 10.0 mi NNW 5.8 mph - N/A   Clear
6:30 PM 71.6 °F 46.4 °F 41% 29.95 in 10.0 mi NW 6.9 mph - N/A   Clear
6:50 PM 69.8 °F 46.4 °F 43% 29.95 in 10.0 mi NNW 4.6 mph - N/A   Clear
7:10 PM 68.0 °F 46.4 °F 46% 29.95 in 10.0 mi NNW 4.6 mph - N/A   Clear
7:30 PM 68.0 °F 48.2 °F 49% 29.95 in 10.0 mi West 3.5 mph - N/A   Clear
7:50 PM 66.2 °F 50.0 °F 56% 29.96 in 10.0 mi West 4.6 mph - N/A   Clear
8:10 PM 66.2 °F 51.8 °F 60% 29.96 in 10.0 mi WNW 4.6 mph - N/A   Clear
8:30 PM 64.4 °F 51.8 °F 64% 29.97 in 10.0 mi NW 4.6 mph - N/A   Clear
8:50 PM 64.4 °F 50.0 °F 59% 29.97 in 10.0 mi NW 4.6 mph - N/A   Clear
9:10 PM 64.4 °F 51.8 °F 64% 29.98 in 10.0 mi Calm Calm - N/A   Clear
9:30 PM 64.4 °F 51.8 °F 64% 29.98 in 10.0 mi West 4.6 mph - N/A   Clear
9:50 PM 62.6 °F 51.8 °F 68% 29.98 in 10.0 mi SW 3.5 mph - N/A   Clear
10:10 PM 62.6 °F 51.8 °F 68% 29.98 in 10.0 mi Calm Calm - N/A   Clear
10:30 PM 62.6 °F 53.6 °F 72% 29.99 in 10.0 mi Calm Calm - N/A   Clear
10:50 PM 60.8 °F 51.8 °F 72% 29.99 in 10.0 mi Calm Calm - N/A   Clear
11:10 PM 60.8 °F 51.8 °F 72% 29.99 in 10.0 mi Calm Calm - N/A   Clear
11:30 PM 60.8 °F 51.8 °F 72% 29.99 in 10.0 mi Calm Calm - N/A   Clear
11:50 PM 59.0 °F 51.8 °F 77% 29.99 in 10.0 mi Calm Calm - N/A   Clear